TimeMST,TemperatureF,Dew PointF,Humidity,Sea Level PressureIn,VisibilityMPH,Wind Direction,Wind SpeedMPH,Gust SpeedMPH,PrecipitationIn,Events,Conditions,WindDirDegrees,DateUTC
12:15 AM,-5.8,-11.2,77,30.17,10.0,North,6.9,-,N/A,,Clear,360,2013-01-05 07:15:00
12:35 AM,-5.8,-7.6,92,30.17,10.0,North,9.2,-,N/A,,Clear,350,2013-01-05 07:35:00
12:55 AM,-5.8,-11.2,77,30.17,10.0,North,6.9,-,N/A,,Clear,10,2013-01-05 07:55:00
1:15 AM,-5.8,-9.4,84,30.17,10.0,North,8.1,-,N/A,,Clear,360,2013-01-05 08:15:00
1:35 AM,-5.8,-11.2,77,30.17,10.0,North,8.1,-,N/A,,Clear,360,2013-01-05 08:35:00
1:55 AM,-5.8,-11.2,77,30.17,10.0,NNE,6.9,-,N/A,,Clear,20,2013-01-05 08:55:00
2:15 AM,-7.6,-14.8,71,30.19,10.0,North,6.9,-,N/A,,Clear,350,2013-01-05 09:15:00
2:35 AM,-5.8,-7.6,92,30.20,10.0,North,6.9,-,N/A,,Clear,10,2013-01-05 09:35:00
2:55 AM,-5.8,-9.4,84,30.20,10.0,NE,4.6,-,N/A,,Clear,50,2013-01-05 09:55:00
3:15 AM,-4.0,-9.4,78,30.21,10.0,North,3.5,-,N/A,,Clear,10,2013-01-05 10:15:00
3:35 AM,-5.8,-7.6,92,30.22,10.0,North,6.9,-,N/A,,Clear,10,2013-01-05 10:35:00
3:55 AM,-9.4,-18.4,65,30.22,10.0,NNE,9.2,-,N/A,,Clear,20,2013-01-05 10:55:00
4:15 AM,-7.6,-9.4,92,30.23,10.0,North,8.1,-,N/A,,Clear,10,2013-01-05 11:15:00
4:35 AM,-7.6,-14.8,71,30.23,10.0,North,6.9,-,N/A,,Clear,360,2013-01-05 11:35:00
4:55 AM,-7.6,-16.6,65,30.23,10.0,NNE,10.4,-,N/A,,Clear,20,2013-01-05 11:55:00
5:15 AM,-7.6,-11.2,84,30.25,10.0,North,6.9,-,N/A,,Clear,10,2013-01-05 12:15:00
5:35 AM,-9.4,-16.6,71,30.25,10.0,NNE,6.9,-,N/A,,Clear,20,2013-01-05 12:35:00
5:55 AM,-9.4,-11.2,92,30.27,10.0,North,6.9,-,N/A,,Clear,350,2013-01-05 12:55:00
6:15 AM,-9.4,-18.4,65,30.26,10.0,NNE,3.5,-,N/A,,Clear,30,2013-01-05 13:15:00
6:35 AM,-9.4,-14.8,77,30.26,10.0,North,8.1,-,N/A,,Clear,350,2013-01-05 13:35:00
6:55 AM,-9.4,-16.6,71,30.27,10.0,North,9.2,-,N/A,,Clear,360,2013-01-05 13:55:00
7:15 AM,-9.4,-14.8,77,30.27,10.0,North,10.4,-,N/A,,Clear,360,2013-01-05 14:15:00
7:35 AM,-7.6,-9.4,92,30.29,10.0,North,10.4,-,N/A,,Clear,350,2013-01-05 14:35:00
7:55 AM,-5.8,-9.4,84,30.29,10.0,North,8.1,-,N/A,,Clear,360,2013-01-05 14:55:00
8:15 AM,-2.2,-5.8,85,30.31,10.0,North,5.8,-,N/A,,Clear,360,2013-01-05 15:15:00
8:55 AM,3.2,-2.2,78,30.32,10.0,North,8.1,-,N/A,,Clear,10,2013-01-05 15:55:00
9:15 AM,6.8,-2.2,67,30.32,10.0,North,9.2,-,N/A,,Clear,10,2013-01-05 16:15:00
9:55 AM,10.4,-0.4,62,30.33,10.0,NNE,6.9,-,N/A,,Clear,20,2013-01-05 16:55:00
10:15 AM,12.2,1.4,62,30.33,10.0,North,6.9,-,N/A,,Clear,360,2013-01-05 17:15:00
10:35 AM,14.0,3.2,62,30.33,10.0,NNE,3.5,-,N/A,,Clear,20,2013-01-05 17:35:00
10:55 AM,17.6,5.0,58,30.33,10.0,NNE,4.6,-,N/A,,Clear,20,2013-01-05 17:55:00
11:15 AM,19.4,5.0,54,30.32,10.0,North,4.6,-,N/A,,Clear,350,2013-01-05 18:15:00
11:35 AM,21.2,3.2,46,30.31,10.0,North,5.8,-,N/A,,Clear,350,2013-01-05 18:35:00
11:55 AM,23.0,6.8,50,30.30,10.0,NE,4.6,-,N/A,,Clear,40,2013-01-05 18:55:00
12:15 PM,24.8,8.6,50,30.30,10.0,East,4.6,-,N/A,,Clear,80,2013-01-05 19:15:00
12:35 PM,26.6,8.6,47,30.29,10.0,North,9.2,-,N/A,,Clear,360,2013-01-05 19:35:00
12:55 PM,26.6,6.8,43,30.28,10.0,North,10.4,-,N/A,,Clear,350,2013-01-05 19:55:00
1:15 PM,26.6,6.8,43,30.28,10.0,North,10.4,-,N/A,,Clear,360,2013-01-05 20:15:00
1:35 PM,26.6,6.8,43,30.28,10.0,North,9.2,-,N/A,,Clear,10,2013-01-05 20:35:00
1:55 PM,26.6,6.8,43,30.27,10.0,North,8.1,-,N/A,,Clear,10,2013-01-05 20:55:00
2:15 PM,26.6,6.8,43,30.27,10.0,North,6.9,-,N/A,,Clear,350,2013-01-05 21:15:00
2:35 PM,28.4,8.6,43,30.27,10.0,North,6.9,-,N/A,,Clear,350,2013-01-05 21:35:00
2:55 PM,28.4,8.6,43,30.28,10.0,North,8.1,-,N/A,,Clear,360,2013-01-05 21:55:00
3:15 PM,28.4,8.6,43,30.28,10.0,North,5.8,-,N/A,,Clear,350,2013-01-05 22:15:00
3:55 PM,26.6,6.8,43,30.29,10.0,North,11.5,-,N/A,,Clear,360,2013-01-05 22:55:00
4:15 PM,24.8,6.8,46,30.29,10.0,North,8.1,-,N/A,,Clear,350,2013-01-05 23:15:00
4:35 PM,23.0,3.2,43,30.30,10.0,North,8.1,-,N/A,,Clear,350,2013-01-05 23:35:00
4:55 PM,19.4,3.2,49,30.31,10.0,North,9.2,-,N/A,,Clear,360,2013-01-05 23:55:00
5:15 PM,15.8,1.4,53,30.31,10.0,NNW,6.9,-,N/A,,Clear,340,2013-01-06 00:15:00
5:35 PM,12.2,-0.4,57,30.32,10.0,North,8.1,-,N/A,,Clear,360,2013-01-06 00:35:00
5:55 PM,12.2,1.4,62,30.32,10.0,North,8.1,-,N/A,,Clear,350,2013-01-06 00:55:00
6:15 PM,8.6,-4.0,57,30.33,10.0,North,6.9,-,N/A,,Clear,350,2013-01-06 01:15:00
6:55 PM,8.6,-2.2,62,30.33,10.0,North,5.8,-,N/A,,Clear,360,2013-01-06 01:55:00
7:15 PM,5.0,-5.8,61,30.33,10.0,North,8.1,-,N/A,,Clear,10,2013-01-06 02:15:00
7:35 PM,5.0,-2.2,72,30.34,10.0,North,6.9,-,N/A,,Clear,10,2013-01-06 02:35:00
7:55 PM,1.4,-4.0,78,30.34,10.0,NNE,9.2,-,N/A,,Clear,20,2013-01-06 02:55:00
8:15 PM,3.2,1.4,92,30.35,10.0,NNE,8.1,-,N/A,,Clear,20,2013-01-06 03:15:00
8:35 PM,5.0,-2.2,72,30.36,10.0,NNE,8.1,-,N/A,,Clear,20,2013-01-06 03:35:00
8:55 PM,3.2,-2.2,78,30.36,10.0,North,5.8,-,N/A,,Clear,10,2013-01-06 03:55:00
9:15 PM,5.0,-2.2,72,30.36,10.0,North,4.6,-,N/A,,Clear,10,2013-01-06 04:15:00
9:35 PM,3.2,-5.8,66,30.36,10.0,North,5.8,-,N/A,,Clear,10,2013-01-06 04:35:00
9:55 PM,3.2,-4.0,72,30.37,10.0,North,4.6,-,N/A,,Clear,350,2013-01-06 04:55:00
10:15 PM,3.2,-4.0,72,30.37,10.0,North,5.8,-,N/A,,Clear,360,2013-01-06 05:15:00
10:35 PM,1.4,-4.0,78,30.37,10.0,North,5.8,-,N/A,,Clear,360,2013-01-06 05:35:00
10:55 PM,-0.4,-7.6,72,30.37,10.0,NNE,8.1,-,N/A,,Clear,20,2013-01-06 05:55:00
11:15 PM,3.2,-0.4,85,30.37,10.0,North,5.8,-,N/A,,Clear,360,2013-01-06 06:15:00
11:35 PM,-0.4,-9.4,66,30.37,10.0,NNE,6.9,-,N/A,,Clear,30,2013-01-06 06:35:00
11:55 PM,-0.4,-7.6,72,30.37,10.0,North,9.2,-,N/A,,Clear,360,2013-01-06 06:55:00